sat.trackr.live / text

‹ back to catalog

LEMUR-2-MONSON

NORAD 42839 · 2017-042Q

PAYLOAD ACTIVE UNKNOWN

§ Identity

Operator
Country
US
Launch date
2017-07-14
Launch site
TYMSC
Launch vehicle
Mass (kg)
RCS (m²)

Purposes: earth_obs

External: N2YO · Heavens-Above · Gunter

§ Orbital elements

Epoch: 2026-09-11T23:56:55.885056Z

Period
94.11 min
Inclination
97.4114°
Eccentricity
0.0007336
Mean motion
15.30193694 rev/d
Perigee alt
470.2 km
Apogee alt
480.3 km
Semi-major
6,853.4 km
B*
3.7894e-4
RAAN
75.2384°
Arg perigee
53.5137°
Mean anomaly
306.6778°
Rev number
50,143

§ Raw data

LEMUR-2-MONSON1 42839U 17042Q   26254.99786904  .00011007  00000+0  37894-3 0  99932 42839  97.4114  75.2384 0007336  53.5137 306.6778 15.30193694501437

JSON: /api/v1/satellites/42839 · /tle

For live sub-satellite position, see the globe view (requires WebGL).

§ Visibility from observer

Set your observer location to see the next 7 days of passes ≥ 10°. The values pass through the URL so the page stays shareable.

No JS? Fill the form by hand. The geolocation button needs JavaScript.